Date String (YYYY-MM-DD hh:mm:ss) UTC,Instrument flags,Ambient pressure (hPa),Sample flow (lpm),Bypass flow (lpm),Sample temperature (°C),Ambient temperature (°C),ASC tube jacket temperature (°C),LED temperature (°C),Box temperature (°C),Sample RH (%),Span deviation,Mass concentration (μg/m³),Mass concentration (μg/m³),Mass concentration (μg/m³)
DateTimeUTC,F1_M11,P_M11,Q1_M11,Q2_M11,T1_M11,T2_M11,T3_M11,T4_M11,T5_M11,U1_M11,ZSPAN_M11,X0_M11,X2_M11,X1_M11
2023-04-10 15:00:00,,0838.4,5.00,0.00,23.5,22.2,00.0,31.8,25.1,15.1,0000.0,0010.87,0004.24,0002.53
2023-04-10 15:01:00,,0838.4,5.00,0.00,23.5,22.2,00.0,31.8,25.1,15.1,0000.0,0010.33,0004.21,0002.51
2023-04-10 15:02:00,,0838.4,5.00,0.00,23.5,22.2,00.0,31.8,25.1,15.2,0000.0,0010.07,0004.22,0002.53
2023-04-10 15:03:00,,0838.4,5.00,0.00,23.6,22.2,00.0,31.8,25.2,15.2,0000.0,0009.93,0004.22,0002.55
2023-04-10 15:04:00,,0838.4,5.00,0.00,23.6,22.2,00.0,31.8,25.2,15.3,0000.0,0009.87,0004.21,0002.55
2023-04-10 15:05:00,,0838.4,5.00,0.00,23.6,22.2,00.0,31.8,25.2,15.1,0000.0,0009.81,0004.21,0002.54
2023-04-10 15:06:00,,0838.5,5.00,0.00,23.6,22.3,00.0,31.8,25.2,15.2,0000.0,0009.64,0004.16,0002.52
2023-04-10 15:07:00,,0838.4,5.00,0.00,23.6,22.3,00.0,31.8,25.2,15.0,0000.0,0009.58,0004.11,0002.52
2023-04-10 15:08:00,,0838.4,4.99,0.00,23.6,22.3,00.0,31.8,25.2,15.3,0000.0,0009.84,0004.13,0002.56
2023-04-10 15:09:00,,0838.4,5.00,0.00,23.6,22.3,00.0,31.9,25.2,15.4,0000.0,0010.11,0004.09,0002.59
2023-04-10 15:10:00,,0838.4,5.00,0.00,23.7,22.3,00.0,31.9,25.2,15.3,0000.0,0010.30,0004.13,0002.61
2023-04-10 15:11:00,,0838.4,5.00,0.00,23.7,22.3,00.0,31.9,25.2,15.5,0000.0,0010.35,0004.16,0002.62
2023-04-10 15:12:00,,0838.4,5.00,0.00,23.7,22.3,00.0,31.9,25.2,15.4,0000.0,0010.34,0004.15,0002.61
2023-04-10 15:13:00,,0838.5,5.00,0.00,23.7,22.3,00.0,31.9,25.3,15.3,0000.0,0010.16,0004.06,0002.59
2023-04-10 15:14:00,,0838.6,5.00,0.00,23.7,22.4,00.0,31.9,25.3,15.0,0000.0,0010.25,0004.06,0002.57
2023-04-10 15:15:00,,0838.6,5.00,0.00,23.7,22.4,00.0,31.9,25.3,15.1,0000.0,0010.23,0004.05,0002.57
2023-04-10 15:16:00,,0838.6,5.00,0.00,23.7,22.4,00.0,32.0,25.3,14.9,0000.0,0009.99,0004.06,0002.59
2023-04-10 15:17:00,,0838.6,5.00,0.00,23.7,22.4,00.0,32.0,25.4,14.7,0000.0,0010.13,0004.14,0002.63
2023-04-10 15:18:00,,0838.6,5.00,0.00,23.8,22.4,00.0,32.0,25.5,14.9,0000.0,0010.09,0004.16,0002.64
2023-04-10 15:19:00,,0838.6,5.00,0.00,23.8,22.4,00.0,32.0,25.5,14.8,0000.0,0010.34,0004.12,0002.63
2023-04-10 15:20:00,,0838.6,5.00,0.00,23.8,22.4,00.0,32.0,25.4,14.8,0000.0,0010.00,0004.17,0002.61
2023-04-10 15:21:00,,0838.5,5.01,0.00,23.8,22.4,00.0,32.0,25.4,15.1,0000.0,0009.72,0004.20,0002.62
2023-04-10 15:22:00,,0838.6,5.00,0.00,23.8,22.5,00.0,32.0,25.4,15.1,0000.0,0009.70,0004.21,0002.61
2023-04-10 15:23:00,,0838.6,4.99,0.00,23.8,22.5,00.0,32.0,25.4,15.0,0000.0,0009.76,0004.21,0002.62
2023-04-10 15:24:00,,0838.6,5.00,0.00,23.8,22.5,00.0,32.0,25.5,14.8,0000.0,0009.97,0004.31,0002.66
2023-04-10 15:25:00,,0838.6,5.00,0.00,23.8,22.5,00.0,32.1,25.5,14.9,0000.0,0009.99,0004.35,0002.70
2023-04-10 15:26:00,,0838.6,5.00,0.00,23.8,22.5,00.0,32.1,25.5,15.0,0000.0,0010.17,0004.36,0002.72
2023-04-10 15:27:00,,0838.6,5.00,0.00,23.9,22.5,00.0,32.1,25.5,15.0,0000.0,0010.16,0004.37,0002.75
2023-04-10 15:28:00,,0838.6,4.99,0.00,23.9,22.6,00.0,32.1,25.5,15.1,0000.0,0010.53,0004.35,0002.75
2023-04-10 15:29:00,,0838.6,4.99,0.00,23.9,22.6,00.0,32.1,25.5,15.4,0000.0,0010.74,0004.38,0002.76
2023-04-10 15:30:00,,0838.6,5.01,0.00,23.9,22.6,00.0,32.1,25.5,15.2,0000.0,0010.68,0004.41,0002.78
2023-04-10 15:31:00,,0838.6,5.00,0.00,23.9,22.6,00.0,32.1,25.5,15.3,0000.0,0010.51,0004.34,0002.80
2023-04-10 15:32:00,,0838.6,5.00,0.00,23.9,22.6,00.0,32.2,25.5,15.6,0000.0,0010.43,0004.30,0002.81
2023-04-10 15:33:00,,0838.6,5.00,0.00,24.0,22.6,00.0,32.2,25.5,15.5,0000.0,0010.57,0004.36,0002.86
2023-04-10 15:34:00,,0838.6,5.00,0.00,24.0,22.7,00.0,32.2,25.6,15.5,0000.0,0010.68,0004.42,0002.92
2023-04-10 15:35:00,,0838.6,4.99,0.00,24.0,22.7,00.0,32.2,25.6,15.3,0000.0,0010.84,0004.40,0002.96
2023-04-10 15:36:00,,0838.6,5.00,0.00,24.0,22.7,00.0,32.2,25.6,15.3,0000.0,0011.04,0004.38,0002.97
2023-04-10 15:37:00,,0838.6,5.00,0.00,24.0,22.7,00.0,32.2,25.6,15.3,0000.0,0012.06,0004.42,0003.00
2023-04-10 15:38:00,,0838.6,5.00,0.00,24.0,22.7,00.0,32.2,25.6,15.9,0000.0,0012.27,0004.46,0003.04
2023-04-10 15:39:00,,0838.6,5.00,0.00,24.0,22.7,00.0,32.2,25.6,15.5,0000.0,0012.41,0004.50,0003.11
2023-04-10 15:40:00,,0838.5,4.99,0.00,24.0,22.7,00.0,32.2,25.6,15.5,0000.0,0012.29,0004.54,0003.15
2023-04-10 15:41:00,,0838.5,5.00,0.00,24.1,22.8,00.0,32.3,25.7,15.2,0000.0,0012.03,0004.63,0003.19
2023-04-10 15:42:00,,0838.5,5.00,0.00,24.1,22.8,00.0,32.3,25.7,15.3,0000.0,0012.39,0004.74,0003.23
2023-04-10 15:43:00,,0838.5,5.01,0.00,24.1,22.8,00.0,32.3,25.7,15.6,0000.0,0013.04,0004.82,0003.28
2023-04-10 15:44:00,,0838.4,4.99,0.00,24.1,22.8,00.0,32.3,25.7,15.6,0000.0,0014.09,0004.89,0003.32
2023-04-10 15:45:00,,0838.5,5.00,0.00,24.1,22.8,00.0,32.3,25.7,15.6,0000.0,0014.27,0004.91,0003.34
2023-04-10 15:46:00,,0838.5,5.00,0.00,24.1,22.8,00.0,32.4,25.7,15.7,0000.0,0015.21,0004.99,0003.37
2023-04-10 15:47:00,,0838.5,4.99,0.00,24.1,22.9,00.0,32.4,25.9,15.5,0000.0,0016.22,0005.10,0003.43
2023-04-10 15:48:00,,0838.5,5.00,0.00,24.2,22.9,00.0,32.4,25.9,15.6,0000.0,0015.33,0005.20,0003.49
2023-04-10 15:49:00,,0838.4,4.99,0.00,24.2,22.9,00.0,32.4,25.9,15.2,0000.0,0015.38,0005.27,0003.55
2023-04-10 15:50:00,,0838.4,5.00,0.00,24.2,22.9,00.0,32.4,25.9,15.3,0000.0,0016.49,0005.37,0003.62
2023-04-10 15:51:00,,0838.4,5.00,0.00,24.2,22.9,00.0,32.4,25.9,15.3,0000.0,0017.75,0005.46,0003.67
2023-04-10 15:52:00,,0838.4,5.00,0.00,24.2,22.9,00.0,32.4,25.9,15.2,0000.0,0017.79,0005.48,0003.71
2023-04-10 15:53:00,,0838.4,5.00,0.00,24.2,23.0,00.0,32.4,25.9,15.0,0000.0,0017.95,0005.54,0003.78
2023-04-10 15:54:00,,0838.4,5.00,0.00,24.2,23.0,00.0,32.5,25.9,14.9,0000.0,0017.88,0005.60,0003.81
2023-04-10 15:55:00,,0838.4,5.00,0.00,24.3,23.0,00.0,32.5,25.9,15.1,0000.0,0017.15,0005.64,0003.83
2023-04-10 15:56:00,,0838.4,5.00,0.00,24.3,23.0,00.0,32.5,25.9,15.2,0000.0,0017.24,0005.73,0003.90
2023-04-10 15:57:00,,0838.4,5.00,0.00,24.3,23.0,00.0,32.5,25.9,15.1,0000.0,0017.30,0005.83,0003.97
2023-04-10 15:58:00,,0838.4,5.00,0.00,24.3,23.0,00.0,32.5,26.0,15.0,0000.0,0018.30,0005.89,0004.02
2023-04-10 15:59:00,,0838.4,5.00,0.00,24.3,23.0,00.0,32.5,26.0,14.9,0000.0,0018.80,0005.99,0004.06
